Main page
METAR-TAF:

METAR-TAF

Airports :

Hebron Municipal Airport

Hebron, Nebraska, United States

latitude: 40-09-08N, longitude: 097-35-13W, elevation: 1466 ft

Current weather observation

The report was made 12 minutes ago, at 02:35 UTC
Calm wind
Temperature 28°F
Humidity 86%
Pressure 30.33 in. Hg
Visibility: 10 miles
Clear sky

METAR: KHJH 250235Z AUTO 00000KT 10SM CLR M02/M04 A3033 RMK AO2 T10231036

Time: 20:47 (02:47 UTC)


TAF: missing

Weather observations and forecasts of more than 4000 airports (METAR and TAF reports).

The available stations are represented by yellow and red dots on the map.

Hover mouse over dot to see the name of the station.

Then click to see weather observations and forecasts.

To change the map : click on the green buttons with a black cross to zoom in, on the green button with a dash to zoom out, or on the green arrows for adjacent maps.


METAR-TAF: